Date String (YYYY-MM-DD hh:mm:ss) UTC,Instrument flags,Ambient pressure (hPa),Sample flow (lpm),Bypass flow (lpm),Sample temperature (°C),Ambient temperature (°C),ASC tube jacket temperature (°C),LED temperature (°C),Box temperature (°C),Sample RH (%),Span deviation,Mass concentration (μg/m³),Mass concentration (μg/m³),Mass concentration (μg/m³)
DateTimeUTC,F1_M11,P_M11,Q1_M11,Q2_M11,T1_M11,T2_M11,T3_M11,T4_M11,T5_M11,U1_M11,ZSPAN_M11,X0_M11,X2_M11,X1_M11
2022-06-21 16:00:00,,0835.3,5.02,0.00,29.7,27.7,00.0,38.6,31.4,14.4,0000.0,0007.61,0003.25,0001.48
2022-06-21 16:01:00,,0835.3,4.99,0.00,29.7,27.8,00.0,38.6,31.4,14.4,0000.0,0008.22,0003.29,0001.49
2022-06-21 16:02:00,,0835.2,5.00,0.00,29.7,27.9,00.0,38.5,31.4,14.4,0000.0,0008.31,0003.32,0001.48
2022-06-21 16:03:00,,0835.2,5.01,0.00,29.7,28.1,00.0,38.5,31.4,14.4,0000.0,0008.31,0003.32,0001.46
2022-06-21 16:04:00,,0835.3,5.01,0.00,29.6,28.2,00.0,38.5,31.4,14.5,0000.0,0008.28,0003.31,0001.43
2022-06-21 16:05:00,,0835.3,4.99,0.00,29.6,28.3,00.0,38.5,31.4,14.5,0000.0,0008.26,0003.24,0001.41
2022-06-21 16:06:00,,0835.3,4.99,0.00,29.7,28.4,00.0,38.5,31.4,14.5,0000.0,0008.48,0003.28,0001.38
2022-06-21 16:07:00,,0835.2,5.01,0.00,29.7,28.4,00.0,38.5,31.5,14.5,0000.0,0008.80,0003.27,0001.36
2022-06-21 16:08:00,,0835.2,5.00,0.00,29.7,28.5,00.0,38.5,31.5,14.5,0000.0,0009.37,0003.27,0001.36
2022-06-21 16:09:00,,0835.2,4.99,0.00,29.7,28.5,00.0,38.5,31.5,14.5,0000.0,0009.28,0003.24,0001.35
2022-06-21 16:10:00,,0835.2,5.00,0.00,29.7,28.6,00.0,38.5,31.5,14.4,0000.0,0009.71,0003.19,0001.34
2022-06-21 16:11:00,,0835.2,5.00,0.00,29.7,28.6,00.0,38.5,31.5,14.3,0000.0,0009.86,0003.16,0001.34
2022-06-21 16:12:00,,0835.2,5.00,0.00,29.7,28.7,00.0,38.5,31.6,14.3,0000.0,0009.41,0003.12,0001.35
2022-06-21 16:13:00,,0835.2,5.00,0.00,29.7,28.7,00.0,38.5,31.6,14.2,0000.0,0009.06,0003.01,0001.34
2022-06-21 16:14:00,,0835.2,5.00,0.00,29.7,28.8,00.0,38.5,31.6,14.2,0000.0,0009.07,0002.96,0001.33
2022-06-21 16:15:00,,0835.2,5.00,0.00,29.8,28.8,00.0,38.5,31.6,14.2,0000.0,0009.07,0002.93,0001.34
2022-06-21 16:16:00,,0835.2,4.99,0.00,29.8,28.8,00.0,38.6,31.6,14.1,0000.0,0009.11,0002.95,0001.35
2022-06-21 16:17:00,,0835.2,5.00,0.00,29.8,28.9,00.0,38.6,31.7,14.0,0000.0,0009.10,0002.94,0001.36
2022-06-21 16:18:00,,0835.2,5.01,0.00,29.8,28.9,00.0,38.6,31.7,14.0,0000.0,0008.90,0002.92,0001.36
2022-06-21 16:19:00,,0835.2,4.98,0.00,29.8,28.9,00.0,38.6,31.7,14.0,0000.0,0008.31,0002.91,0001.36
2022-06-21 16:20:00,,0835.3,5.01,0.00,29.8,29.0,00.0,38.6,31.7,14.0,0000.0,0007.99,0002.85,0001.36
2022-06-21 16:21:00,,0835.2,5.01,0.00,29.9,29.0,00.0,38.6,31.7,14.1,0000.0,0007.27,0002.82,0001.35
2022-06-21 16:22:00,,0835.2,5.00,0.00,29.9,28.5,00.0,38.6,31.7,14.0,0000.0,0006.94,0002.82,0001.35
2022-06-21 16:23:00,,0835.2,5.00,0.00,29.8,27.7,00.0,38.5,31.4,14.0,0000.0,0007.19,0002.85,0001.33
2022-06-21 16:24:00,,0835.2,5.00,0.00,29.7,27.4,00.0,38.5,31.3,14.0,0000.0,0007.47,0002.90,0001.32
2022-06-21 16:25:00,,0835.2,5.01,0.00,29.6,27.3,00.0,38.5,31.3,14.0,0000.0,0007.47,0002.92,0001.32
2022-06-21 16:26:00,,0835.2,5.00,0.00,29.6,27.4,00.0,38.4,31.3,14.0,0000.0,0007.59,0002.96,0001.32
2022-06-21 16:27:00,,0835.1,5.00,0.00,29.6,27.6,00.0,38.4,31.3,14.0,0000.0,0007.68,0002.94,0001.31
2022-06-21 16:28:00,,0835.2,5.00,0.00,29.5,27.7,00.0,38.4,31.3,13.9,0000.0,0008.36,0002.93,0001.31
2022-06-21 16:29:00,,0835.2,4.99,0.00,29.5,27.8,00.0,38.4,31.3,14.0,0000.0,0008.34,0002.90,0001.32
2022-06-21 16:30:00,,0835.2,4.99,0.00,29.5,28.0,00.0,38.4,31.3,14.1,0000.0,0008.53,0002.94,0001.32
2022-06-21 16:31:00,,0835.1,5.00,0.00,29.5,28.1,00.0,38.4,31.3,14.1,0000.0,0008.64,0002.97,0001.33
2022-06-21 16:32:00,,0835.1,5.01,0.00,29.5,28.2,00.0,38.4,31.4,14.1,0000.0,0008.69,0003.02,0001.32
2022-06-21 16:33:00,,0835.2,5.00,0.00,29.6,28.3,00.0,38.4,31.4,14.1,0000.0,0008.76,0003.08,0001.33
2022-06-21 16:34:00,,0835.1,5.00,0.00,29.6,28.4,00.0,38.4,31.4,14.3,0000.0,0008.72,0003.06,0001.34
2022-06-21 16:35:00,,0835.2,4.99,0.00,29.6,28.4,00.0,38.4,31.4,14.3,0000.0,0008.63,0003.06,0001.36
2022-06-21 16:36:00,,0835.1,5.02,0.00,29.6,28.5,00.0,38.4,31.5,14.3,0000.0,0008.54,0003.03,0001.36
2022-06-21 16:37:00,,0835.1,4.99,0.00,29.6,28.6,00.0,38.4,31.5,14.3,0000.0,0009.10,0002.98,0001.35
2022-06-21 16:38:00,,0835.1,5.00,0.00,29.6,28.6,00.0,38.4,31.5,14.2,0000.0,0009.43,0003.01,0001.34
2022-06-21 16:39:00,,0835.2,5.00,0.00,29.6,28.7,00.0,38.4,31.5,14.2,0000.0,0008.63,0002.99,0001.34
2022-06-21 16:40:00,,0835.2,5.00,0.00,29.7,28.7,00.0,38.4,31.6,14.2,0000.0,0009.32,0003.03,0001.35
2022-06-21 16:41:00,,0835.1,5.00,0.00,29.7,28.8,00.0,38.5,31.6,14.2,0000.0,0009.09,0002.93,0001.35
2022-06-21 16:42:00,,0835.2,5.00,0.00,29.7,28.8,00.0,38.5,31.6,14.2,0000.0,0010.09,0002.93,0001.34
2022-06-21 16:43:00,,0835.2,5.00,0.00,29.7,28.8,00.0,38.5,31.6,14.2,0000.0,0010.27,0002.97,0001.35
2022-06-21 16:44:00,,0835.1,4.99,0.00,29.8,28.9,00.0,38.5,31.7,14.2,0000.0,0010.33,0003.03,0001.36
2022-06-21 16:45:00,,0835.1,5.01,0.00,29.8,28.7,00.0,38.5,31.7,14.2,0000.0,0010.18,0003.01,0001.36
2022-06-21 16:46:00,,0835.0,5.01,0.00,29.7,27.9,00.0,38.4,31.5,14.3,0000.0,0010.19,0003.01,0001.36
2022-06-21 16:47:00,,0835.0,5.00,0.00,29.6,27.3,00.0,38.4,31.2,14.3,0000.0,0010.52,0003.11,0001.37
2022-06-21 16:48:00,,0835.0,5.00,0.00,29.6,27.2,00.0,38.3,31.2,14.3,0000.0,0009.90,0003.07,0001.38
2022-06-21 16:49:00,,0835.1,4.99,0.00,29.5,27.2,00.0,38.3,31.1,14.4,0000.0,0009.19,0003.00,0001.40
2022-06-21 16:50:00,,0835.0,5.00,0.00,29.5,27.4,00.0,38.3,31.2,14.4,0000.0,0010.00,0003.07,0001.42
2022-06-21 16:51:00,,0835.0,5.00,0.00,29.4,27.5,00.0,38.3,31.2,14.4,0000.0,0009.60,0003.12,0001.43
2022-06-21 16:52:00,,0835.0,5.00,0.00,29.4,27.7,00.0,38.3,31.2,14.4,0000.0,0010.52,0003.23,0001.44
2022-06-21 16:53:00,,0835.0,4.99,0.00,29.4,27.8,00.0,38.3,31.2,14.4,0000.0,0010.21,0003.27,0001.45
2022-06-21 16:54:00,,0835.1,5.00,0.00,29.4,28.0,00.0,38.3,31.3,14.4,0000.0,0010.12,0003.25,0001.46
2022-06-21 16:55:00,,0835.1,5.01,0.00,29.5,28.1,00.0,38.3,31.3,14.4,0000.0,0010.43,0003.17,0001.46
2022-06-21 16:56:00,,0835.0,4.99,0.00,29.5,28.2,00.0,38.3,31.3,14.3,0000.0,0010.66,0003.21,0001.48
2022-06-21 16:57:00,,0835.1,5.00,0.00,29.5,28.3,00.0,38.3,31.3,14.2,0000.0,0010.71,0003.22,0001.48
2022-06-21 16:58:00,,0835.1,5.01,0.00,29.5,28.4,00.0,38.3,31.4,14.2,0000.0,0010.69,0003.20,0001.48
2022-06-21 16:59:00,,0835.1,5.00,0.00,29.5,28.5,00.0,38.3,31.4,14.3,0000.0,0011.50,0003.26,0001.49
